Location: Niedergestelen
(46.3129°N, 7.7822°E)
Time: 23:16:23
(UTC+00:00)

CSL-04 DEB - Visible Passes

Search period start: 24 June 2021 00:00
Search period end: 04 July 2021 00:00
Orbit: 645 x 794 km, 98.5° (Epoch: 24 June)

Date Brightness Start Highest point End Pass type
(mag) Time Alt. Az. Time Alt. Az. Time Alt. Az.
25 Jun ? 20:38:19 10° SSW 20:42:09 24° W 20:46:07 10° NW visible
27 Jun ? 20:36:28 10° SSW 20:40:24 25° W 20:44:30 10° NW visible
29 Jun ? 20:34:36 10° SSW 20:38:39 27° W 20:42:52 10° NW visible
01 Jul ? 20:32:45 10° SSW 20:36:54 28° W 20:41:14 10° NW visible
02 Jul ? 21:25:35 10° W 21:25:43 10° W 21:25:50 10° W visible
03 Jul ? 20:30:55 10° SSW 20:35:09 29° W 20:39:35 10° NW visible
